TimeCST,TemperatureF,Dew PointF,Humidity,Sea Level PressureIn,VisibilityMPH,Wind Direction,Wind SpeedMPH,Gust SpeedMPH,PrecipitationIn,Events,Conditions,WindDirDegrees,DateUTC
12:54 AM,12.9,9.0,84,30.27,10.0,East,5.8,-,N/A,,Clear,90,2014-01-08 06:54:00
1:54 AM,16.0,12.0,84,30.29,10.0,ENE,3.5,-,N/A,,Clear,60,2014-01-08 07:54:00
2:54 AM,18.0,14.0,84,30.30,10.0,East,5.8,-,N/A,,Partly Cloudy,100,2014-01-08 08:54:00
3:54 AM,18.0,14.0,84,30.31,10.0,Calm,Calm,-,N/A,,Scattered Clouds,0,2014-01-08 09:54:00
4:54 AM,17.1,12.0,81,30.32,10.0,WNW,4.6,-,N/A,,Scattered Clouds,290,2014-01-08 10:54:00
5:54 AM,17.1,12.9,84,30.34,10.0,West,3.5,-,N/A,,Scattered Clouds,280,2014-01-08 11:54:00
6:54 AM,19.0,14.0,81,30.35,10.0,NNE,3.5,-,N/A,,Scattered Clouds,30,2014-01-08 12:54:00
7:54 AM,19.0,12.0,74,30.38,10.0,Calm,Calm,-,N/A,,Mostly Cloudy,0,2014-01-08 13:54:00
8:54 AM,19.9,9.0,62,30.41,10.0,NNE,9.2,-,N/A,,Mostly Cloudy,30,2014-01-08 14:54:00
9:54 AM,19.9,9.0,62,30.42,10.0,NE,9.2,-,N/A,,Clear,50,2014-01-08 15:54:00
10:54 AM,21.9,10.9,63,30.42,10.0,NE,9.2,-,N/A,,Clear,40,2014-01-08 16:54:00
11:54 AM,21.9,10.9,63,30.40,10.0,NE,8.1,-,N/A,,Mostly Cloudy,40,2014-01-08 17:54:00
12:54 PM,23.0,10.9,60,30.40,10.0,NE,5.8,-,N/A,,Clear,50,2014-01-08 18:54:00
1:54 PM,24.1,12.0,60,30.40,10.0,NNE,8.1,-,N/A,,Clear,30,2014-01-08 19:54:00
2:54 PM,24.1,12.0,60,30.41,10.0,NNE,8.1,-,N/A,,Overcast,30,2014-01-08 20:54:00
3:54 PM,23.0,12.0,63,30.43,10.0,NNE,9.2,-,N/A,,Overcast,30,2014-01-08 21:54:00
4:54 PM,21.9,10.9,63,30.43,10.0,NNE,9.2,-,N/A,,Overcast,30,2014-01-08 22:54:00
5:54 PM,19.9,10.0,65,30.44,10.0,NE,9.2,-,N/A,,Mostly Cloudy,40,2014-01-08 23:54:00
6:54 PM,19.0,10.0,68,30.47,10.0,NE,9.2,-,N/A,,Partly Cloudy,40,2014-01-09 00:54:00
7:54 PM,18.0,10.0,71,30.48,10.0,NE,11.5,-,N/A,,Clear,40,2014-01-09 01:54:00
8:54 PM,18.0,10.0,71,30.48,10.0,NE,6.9,-,N/A,,Partly Cloudy,50,2014-01-09 02:54:00
9:54 PM,18.0,10.0,71,30.48,10.0,NE,9.2,-,N/A,,Mostly Cloudy,50,2014-01-09 03:54:00
10:54 PM,17.1,10.0,74,30.48,10.0,ENE,4.6,-,N/A,,Partly Cloudy,60,2014-01-09 04:54:00
11:54 PM,18.0,10.0,71,30.47,10.0,ENE,8.1,-,N/A,,Overcast,60,2014-01-09 05:54:00